Regional Weather Roundup
Issued by NWS

Home | Current Version | Previous Version | Text Only | Print | Product List | Glossary On
Versions: 1 2 3 4 5 6 7 8 9 10 11 12 13 14 15 16 17 18 19 20 21 22 23 24 25 26 27 28 29 30 31 32 33 34 35 36 37 38 39 40 41 42 43 44 45 46 47 48 49 50
000
ASUS43 KFSD 301110
RWRSD

WEATHER ROUNDUP FOR SOUTH DAKOTA
NATIONAL WEATHER SERVICE SIOUX FALLS SD
600 AM CDT FRI SEP 30 2016

NOTE: "FAIR" INDICATES FEW OR NO CLOUDS BELOW 12,000 FEET WITH NO
SIGNIFICANT WEATHER AND/OR OBSTRUCTIONS TO VISIBILITY.


SDZ001>005-009-010-012>017-301200-
NORTHWEST AND NORTH CENTRAL SOUTH DAKOTA

CITY           SKY/WX    TMP DP  RH WIND       PRES   REMARKS
BUFFALO          N/A     59  44  57 SE10      30.01F
FAITH            N/A     52  42  69 SE20      30.10F
MOBRIDGE       PTCLDY    57  46  66 SE18      30.16F
$$

SDZ012>016-024>037-041>051-057-063-072>074-301200-
SOUTHWEST AND SOUTH CENTRAL SOUTH DAKOTA

CITY           SKY/WX    TMP DP  RH WIND       PRES   REMARKS
RAPID CTY ARPT CLOUDY    57  43  59 E10       30.11F
PIERRE         CLOUDY    52  44  74 SE16      30.20S
CUSTER         CLOUDY    55  40  56 W3        30.21F
ELLSWORTH AFB  CLOUDY    60  43  54 S14       30.08F
PHILIP         PTCLDY    49  42  77 SE9       30.15F
PINE RIDGE     CLOUDY    56  41  57 S9        30.17R
WINNER         FAIR      52  45  77 S13       30.24S
$$

SDZ004>011-016>023-039-040-301200-
NORTHEAST SOUTH DAKOTA

CITY           SKY/WX    TMP DP  RH WIND       PRES   REMARKS
ABERDEEN       CLOUDY    46  43  89 S7        30.29S
WATERTOWN      CLEAR     48  44  86 S5        30.32S
BROOKINGS      CLEAR     43  42  97 CALM      30.32F
SISSETON         N/A     43  42  97 S6        30.33S
$$

SDZ017-020-022-023-036>040-048>070-301200-
SOUTHEAST SOUTH DAKOTA

CITY           SKY/WX    TMP DP  RH WIND       PRES   REMARKS
SIOUX FALLS    CLEAR     44  42  93 NE3       30.33S
HURON          CLEAR     47  45  93 SE6       30.30R
CHAMBERLAIN    CLEAR     49  47  93 SE6       30.26S
MITCHELL       CLEAR     46  43  89 S6        30.31S
YANKTON        CLEAR     45  45 100 CALM      30.30S
$$

ABBREVIATIONS USED IN REMARKS
   TC - TEMPERATURE IN CELSIUS
  WCI - WIND CHILL INDEX
   HX - HEAT INDEX
  VSB - VISIBILITY




USA.gov is the U.S. government's official web portal to all federal, state and local government web resources and services.